User: anonymous   Login
Location: Kikino
(54.4440°N, 112.0940°W)
Time: 04:31:16
(UTC+00:00)
Language:

deb Explorer IX - Orbit

View from above orbital plane
View from above orbital plane
View from above satellite
View from above satellite

Ground track
Ground track

The orbit data is extracted from the following two-line orbital elements,

1 00085U 61004C   24144.34579317  .00029969  00000-0  39794-2 0  9997
2 00085  38.7384 141.0040 0267040 140.5760 221.4762 14.57345981136764
Epoch (UTC): 23 May 2024 08:17:56
Eccentricity: 0.0267040
inclination: 38.7384°
perigee height: 513 km
apogee height: 891 km
right ascension of ascending node: 141.0040°
argument of perigee: 140.5760°
revolutions per day: 14.57345981
mean anomaly at epoch: 221.4762°
orbit number at epoch: 13676

The dashed part of the orbit path shows where the satellite is in the earth's shadow,  

DLR